Location: Cheching
(60.0667°N, 164.2167°W)
Time: 22:07:15
(UTC+00:00)

LilacSat-2 - Pass Details

Date: 18 January 2021
Orbit: 512 x 534 km, 97.5° (Epoch: 07 March)

Event Time Altitude Azimuth Distance (km) Brightness Sun altitude
Rises 16:29:02 0° 19° (NNE) 2,682 ? -22.3°
Reaches altitude 10° 16:31:16 10° 28° (NNE) 1,791 ? -22.1°
Maximum altitude 16:34:54 38° 97° (E) 832 ? -21.6°
Drops below altitude 10° 16:38:31 10° 167° (SSE) 1,787 ? -21.2°
Sets 16:40:44 0° 175° (S) 2,675 ? -20.9°
